Weather in Dara'a

Syria     32°37′05″N   36°06′18″E
temp.,
°C
wind,
m/s
gust,
m/s
humid.,
%
clouds,
%
prec.,
mm/h
press.,
hPa
HPBL,
m
25 january, tue
tue2523:00+4se22805 0.0 102415
02:00+3sse33825 0.0 102318
05:00+3sse33742 0.0 102221
08:00+4sse48784 0.0 1023247
11:00+8sse56623 0.0 1021712
14:00+10s455493 0.0 10181591
17:00+8w45676 0.1 1018149
20:00+6w46790 0.1 1020101
26 january, wed
wed2623:00+5sw22810 0.0 101925
02:00+4ssw33810 0.0 101834
05:00+4ssw597180 0.0 1017197
08:00+6ssw5107582 0.0 1016614
11:00+8sw71070100 0.1 10161249
14:00+7sw10147078 0.4 10131392
17:00+4wsw12189092 3.1 10131005
20:00+4w71196100 8.6 1015848
27 january, thu
thu2723:00+2sw71496100 6.7 1015789
02:00+2wsw101593100 9.4 10141025
05:00+4w131784100 3.5 10131066
08:00+4w11167999 5.4 10171138
11:00+7w13166358 1.1 10181831
14:00+7w12146715 1.4 10181502
17:00+5w712745 0.2 1019393
20:00+5wsw712788 0.3 1021288
28 january, fri
fri2823:00+5wsw6108479 0.2 1021297
02:00+5wsw5995100 0.6 1022802
05:00+5sw4991100 0.9 1022793
08:00+5sw4892100 1.7 1024934
11:00+6sw3689100 1.2 1024966
14:00+6sw3889100 2.4 1022985
17:00+6s358896 0.6 1022239
20:00+5ssw359188 0.8 1024142
29 january, sat
sat2923:00+5sw2490100 0.4 1024197
02:00+5sse228876 1.0 102473
05:00+5s228673 0.1 102360
08:00+6sse238162 0.1 1024203
11:00+8sse337066 0.1 1024817
14:00+9s336672 0.3 1022819
17:00+8nw117438 0.3 102243
20:00+7ese227416 0.5 102428